Hourly Weather Otroslovlya

Today, 30 July, Friday

Time Temperature Precipitation Wind Pressure Humidity
00:00 +18°C° 0 mm 2 mps 743 mmHg 83%
01:00 +17°C° 0 mm 2 mps 743 mmHg 85%
02:00 +17°C° 0 mm 2 mps 742 mmHg 88%
03:00 +17°C° 0 mm 2 mps 742 mmHg 87%
04:00 +19°C° 0 mm 1 mps 742 mmHg 87%
05:00 +19°C° 0 mm 1 mps 742 mmHg 86%
06:00 +20°C° 0 mm 2 mps 742 mmHg 79%
07:00 +23°C° 0 mm 2 mps 742 mmHg 72%
08:00 +24°C° 0 mm 2 mps 742 mmHg 65%
09:00 +23°C° 0.6 mm 2 mps 742 mmHg 73%
10:00 +22°C° 0.6 mm 3 mps 742 mmHg 81%
11:00 +21°C° 0.6 mm 3 mps 742 mmHg 88%
12:00 +20°C° 0.3 mm 3 mps 742 mmHg 89%
13:00 +20°C° 0.3 mm 2 mps 742 mmHg 89%
14:00 +21°C° 0 mm 1 mps 742 mmHg 88%
15:00 +21°C° 0.8 mm 2 mps 742 mmHg 87%
16:00 +23°C° 0.8 mm 2 mps 741 mmHg 85%
17:00 +24°C° 0.8 mm 2 mps 741 mmHg 84%
18:00 +21°C° 0.4 mm 2 mps 741 mmHg 86%
19:00 +20°C° 0.4 mm 2 mps 741 mmHg 89%
20:00 +18°C° 0.4 mm 2 mps 741 mmHg 91%
21:00 +18°C° 0 mm 2 mps 741 mmHg 91%
22:00 +18°C° 0 mm 2 mps 741 mmHg 92%
23:00 +18°C° 0 mm 2 mps 741 mmHg 92%

Tomorrow, 31 July, Saturday

Time Temperature Precipitation Wind Pressure Humidity
00:00 +17°C° 0 mm 2 mps 741 mmHg 93%
01:00 +16°C° 0 mm 2 mps 741 mmHg 93%
02:00 +16°C° 0 mm 2 mps 741 mmHg 94%
03:00 +16°C° 0 mm 2 mps 741 mmHg 93%
04:00 +16°C° 0 mm 2 mps 741 mmHg 93%
05:00 +16°C° 0 mm 2 mps 740 mmHg 92%
06:00 +18°C° 0 mm 3 mps 741 mmHg 80%
07:00 +20°C° 0 mm 4 mps 741 mmHg 68%
08:00 +22°C° 0 mm 5 mps 741 mmHg 55%
09:00 +23°C° 0 mm 5 mps 741 mmHg 49%
10:00 +24°C° 0 mm 6 mps 741 mmHg 43%
11:00 +26°C° 0 mm 6 mps 741 mmHg 36%
12:00 +26°C° 0 mm 6 mps 741 mmHg 40%
13:00 +24°C° 0 mm 6 mps 741 mmHg 44%
14:00 +25°C° 0 mm 5 mps 741 mmHg 48%
15:00 +23°C° 0 mm 5 mps 742 mmHg 50%
16:00 +23°C° 0 mm 5 mps 742 mmHg 51%
17:00 +23°C° 0 mm 5 mps 742 mmHg 52%
18:00 +22°C° 0 mm 4 mps 742 mmHg 58%
19:00 +20°C° 0 mm 3 mps 743 mmHg 64%
20:00 +19°C° 0 mm 3 mps 743 mmHg 70%
21:00 +18°C° 0 mm 3 mps 743 mmHg 74%
22:00 +18°C° 0 mm 3 mps 744 mmHg 79%
23:00 +17°C° 0 mm 3 mps 744 mmHg 83%

Day after tomorrow, 1 August, Sunday

Time Temperature Precipitation Wind Pressure Humidity
00:00 +17°C° 0 mm 3 mps 744 mmHg 86%
01:00 +16°C° 0 mm 2 mps 745 mmHg 89%
02:00 +16°C° 0 mm 2 mps 745 mmHg 92%
03:00 +16°C° 0 mm 2 mps 745 mmHg 90%
04:00 +16°C° 0 mm 2 mps 745 mmHg 88%
05:00 +17°C° 0 mm 2 mps 745 mmHg 87%
06:00 +19°C° 0 mm 2 mps 745 mmHg 77%
07:00 +21°C° 0 mm 3 mps 746 mmHg 67%
08:00 +24°C° 0 mm 3 mps 746 mmHg 57%
09:00 +22°C° 0.4 mm 3 mps 746 mmHg 66%
10:00 +21°C° 0.4 mm 4 mps 746 mmHg 75%
11:00 +19°C° 0.4 mm 4 mps 746 mmHg 84%
12:00 +19°C° 1.5 mm 4 mps 746 mmHg 87%
13:00 +19°C° 1.5 mm 3 mps 746 mmHg 91%
14:00 +18°C° 1.5 mm 3 mps 745 mmHg 95%
15:00 +20°C° 0.1 mm 3 mps 745 mmHg 91%
16:00 +21°C° 0.1 mm 3 mps 745 mmHg 87%
17:00 +22°C° 0.1 mm 3 mps 745 mmHg 83%
18:00 +21°C° 0 mm 2 mps 745 mmHg 87%
19:00 +20°C° 0 mm 2 mps 745 mmHg 90%
20:00 +20°C° 0 mm 1 mps 745 mmHg 94%
21:00 +18°C° 0 mm 2 mps 745 mmHg 95%
22:00 +18°C° 0 mm 2 mps 745 mmHg 95%
23:00 +18°C° 0 mm 2 mps 745 mmHg 96%

2 August, Monday

Time Temperature Precipitation Wind Pressure Humidity
00:00 +17°C° 0 mm 2 mps 745 mmHg 96%
01:00 +17°C° 0 mm 2 mps 745 mmHg 96%
02:00 +17°C° 0 mm 2 mps 745 mmHg 96%
03:00 +17°C° 0 mm 2 mps 745 mmHg 95%
04:00 +17°C° 0 mm 2 mps 745 mmHg 93%
05:00 +18°C° 0 mm 1 mps 745 mmHg 92%
06:00 +19°C° 0 mm 2 mps 745 mmHg 82%
07:00 +21°C° 0 mm 2 mps 745 mmHg 72%
08:00 +24°C° 0 mm 2 mps 745 mmHg 62%
09:00 +26°C° 0 mm 2 mps 745 mmHg 55%
10:00 +27°C° 0 mm 2 mps 744 mmHg 48%
11:00 +29°C° 0 mm 3 mps 744 mmHg 42%
12:00 +30°C° 0 mm 3 mps 744 mmHg 42%
13:00 +30°C° 0 mm 3 mps 743 mmHg 41%
14:00 +31°C° 0 mm 3 mps 742 mmHg 41%
15:00 +30°C° 0 mm 3 mps 741 mmHg 48%
16:00 +29°C° 0 mm 3 mps 741 mmHg 54%
17:00 +28°C° 0 mm 3 mps 740 mmHg 60%
18:00 +26°C° 1.9 mm 3 mps 740 mmHg 71%
19:00 +23°C° 1.9 mm 4 mps 740 mmHg 83%
20:00 +20°C° 1.9 mm 4 mps 740 mmHg 94%
21:00 +20°C° 0.5 mm 4 mps 740 mmHg 94%
22:00 +19°C° 0.5 mm 4 mps 740 mmHg 94%
23:00 +19°C° 0.5 mm 4 mps 739 mmHg 95%

3 August, Tuesday

Time Temperature Precipitation Wind Pressure Humidity
00:00 +18°C° 0 mm 4 mps 740 mmHg 93%
01:00 +18°C° 0 mm 4 mps 740 mmHg 92%
02:00 +17°C° 0 mm 4 mps 740 mmHg 90%
03:00 +17°C° 0 mm 4 mps 741 mmHg 91%
04:00 +17°C° 0 mm 3 mps 741 mmHg 92%
05:00 +17°C° 0 mm 3 mps 742 mmHg 92%
06:00 +18°C° 0 mm 3 mps 742 mmHg 86%
07:00 +18°C° 0 mm 3 mps 742 mmHg 80%
08:00 +19°C° 0 mm 2 mps 742 mmHg 74%
09:00 +21°C° 0 mm 2 mps 743 mmHg 66%
10:00 +23°C° 0 mm 2 mps 743 mmHg 59%
11:00 +25°C° 0 mm 2 mps 743 mmHg 51%
12:00 +24°C° 0.3 mm 2 mps 743 mmHg 58%
13:00 +22°C° 0.3 mm 3 mps 743 mmHg 66%
14:00 +21°C° 0.3 mm 3 mps 743 mmHg 73%
15:00 +20°C° 0.4 mm 3 mps 744 mmHg 76%
16:00 +20°C° 0.4 mm 2 mps 744 mmHg 80%
17:00 +20°C° 0.4 mm 1 mps 744 mmHg 83%
18:00 +19°C° 0.1 mm 1 mps 744 mmHg 84%
19:00 +18°C° 0.1 mm 1 mps 745 mmHg 86%
20:00 +17°C° 0.1 mm 2 mps 745 mmHg 87%
21:00 +16°C° 0 mm 2 mps 745 mmHg 88%
22:00 +16°C° 0 mm 2 mps 746 mmHg 89%
23:00 +15°C° 0 mm 2 mps 746 mmHg 91%

4 August, Wednesday

Time Temperature Precipitation Wind Pressure Humidity
00:00 +15°C° 0 mm 2 mps 746 mmHg 92%
01:00 +14°C° 0 mm 2 mps 747 mmHg 93%
02:00 +14°C° 0 mm 2 mps 747 mmHg 94%
03:00 +14°C° 0 mm 2 mps 747 mmHg 94%
04:00 +13°C° 0 mm 2 mps 748 mmHg 94%
05:00 +13°C° 0 mm 2 mps 748 mmHg 94%
06:00 +15°C° 0 mm 2 mps 748 mmHg 85%
07:00 +17°C° 0 mm 3 mps 748 mmHg 76%
08:00 +19°C° 0 mm 3 mps 749 mmHg 67%
09:00 +20°C° 0 mm 3 mps 749 mmHg 62%
10:00 +21°C° 0 mm 3 mps 749 mmHg 57%
11:00 +22°C° 0 mm 3 mps 749 mmHg 52%
12:00 +22°C° 0 mm 3 mps 750 mmHg 51%
13:00 +22°C° 0 mm 3 mps 750 mmHg 49%
14:00 +22°C° 0 mm 3 mps 750 mmHg 47%
15:00 +23°C° 0 mm 2 mps 750 mmHg 46%
16:00 +23°C° 0 mm 2 mps 750 mmHg 45%
17:00 +24°C° 0 mm 2 mps 750 mmHg 44%
18:00 +21°C° 0 mm 2 mps 750 mmHg 51%
19:00 +19°C° 0 mm 2 mps 751 mmHg 58%
20:00 +17°C° 0 mm 2 mps 751 mmHg 65%
21:00 +16°C° 0 mm 2 mps 751 mmHg 69%
22:00 +15°C° 0 mm 1 mps 751 mmHg 74%
23:00 +14°C° 0 mm 1 mps 752 mmHg 78%
Show more